| time (UTC) | temp C | wind direction | speed KPH | gust KPH | rain 1hr cm | rain 24hr cm | rain mn cm | humidity % | barometer mb |
| 20260509231152 | 12 | 177 | 3.2 | 3.2 | 0.00 | 0.74 | 0.74 | 85 | 1007.6 |
| 20260509230649 | 12 | 135 | 3.2 | 3.2 | 0.00 | 0.74 | 0.74 | 85 | 1007.4 |
| 20260509230146 | 13 | 144 | 8.0 | 11.3 | 0.00 | 0.74 | 0.74 | 85 | 1007.8 |
| 20260509225641 | 13 | 157 | 3.2 | 3.2 | 0.00 | 0.74 | 0.74 | 84 | 1008.0 |
| 20260509225137 | 13 | 181 | 4.8 | 4.8 | 0.00 | 0.74 | 0.74 | 85 | 1008.0 |
| 20260509224633 | 12 | 166 | 8.0 | 9.7 | 0.00 | 0.74 | 0.74 | 85 | 1008.1 |
| 20260509224130 | 12 | 171 | 8.0 | 9.7 | 0.00 | 0.74 | 0.74 | 84 | 1007.8 |
| 20260509223627 | 13 | 147 | 4.8 | 4.8 | 0.00 | 0.74 | 0.74 | 84 | 1008.0 |
| 20260509223124 | 13 | 194 | 3.2 | 4.8 | 0.00 | 0.74 | 0.74 | 84 | 1007.9 |
| 20260509222621 | 13 | 182 | 1.6 | 1.6 | 0.00 | 0.74 | 0.74 | 84 | 1007.7 |
| 20260509222116 | 13 | 160 | 4.8 | 8.0 | 0.00 | 0.74 | 0.74 | 84 | 1007.8 |
| 20260509221612 | 12 | 176 | 4.8 | 4.8 | 0.00 | 0.74 | 0.74 | 85 | 1007.7 |
| 20260509221108 | 12 | 180 | 6.4 | 9.7 | 0.00 | 0.74 | 0.74 | 85 | 1007.8 |
| 20260509220604 | 13 | 140 | 3.2 | 3.2 | 0.00 | 0.74 | 0.74 | 85 | 1007.7 |
| 20260509215556 | 13 | 184 | 1.6 | 3.2 | 0.00 | 0.74 | 0.74 | 85 | 1007.8 |
| 20260509215054 | 12 | 140 | 3.2 | 4.8 | 0.00 | 0.74 | 0.74 | 85 | 1007.7 |
| 20260509214551 | 12 | 205 | 11.3 | 14.5 | 0.00 | 0.74 | 0.74 | 85 | 1007.9 |
| 20260509214048 | 13 | 178 | 3.2 | 3.2 | 0.00 | 0.74 | 0.74 | 85 | 1008.0 |
| 20260509213544 | 13 | 179 | 1.6 | 3.2 | 0.00 | 0.74 | 0.74 | 86 | 1008.0 |
| 20260509213041 | 12 | 137 | 1.6 | 3.2 | 0.00 | 0.74 | 0.74 | 86 | 1008.1 |
| 20260509212538 | 12 | 178 | 8.0 | 9.7 | 0.00 | 0.74 | 0.74 | 86 | 1008.0 |
| 20260509212035 | 12 | 173 | 3.2 | 3.2 | 0.00 | 0.74 | 0.74 | 86 | 1008.1 |
| 20260509211530 | 12 | 127 | 4.8 | 4.8 | 0.00 | 0.74 | 0.74 | 86 | 1008.2 |
| 20260509211027 | 12 | 120 | 4.8 | 8.0 | 0.00 | 0.74 | 0.74 | 86 | 1008.3 |
| 20260509210524 | 12 | 172 | 1.6 | 1.6 | 0.00 | 0.74 | 0.74 | 86 | 1008.3 |
| 20260509210020 | 12 | 197 | 11.3 | 14.5 | 0.00 | 0.74 | 0.74 | 86 | 1008.1 |
| 20260509205514 | 12 | 239 | 8.0 | 11.3 | 0.00 | 0.74 | 0.74 | 87 | 1008.3 |
| 20260509205010 | 12 | 191 | 4.8 | 8.0 | 0.00 | 0.74 | 0.74 | 87 | 1008.4 |
| 20260509204507 | 12 | 228 | 6.4 | 8.0 | 0.00 | 0.74 | 0.74 | 87 | 1008.5 |
| 20260509204003 | 12 | 169 | 8.0 | 9.7 | 0.00 | 0.74 | 0.74 | 87 | 1008.6 |
| 20260509203459 | 12 | 145 | 6.4 | 8.0 | 0.00 | 0.74 | 0.74 | 87 | 1008.5 |
| 20260509202957 | 12 | 168 | 3.2 | 3.2 | 0.00 | 0.74 | 0.74 | 87 | 1008.5 |
| 20260509202452 | 12 | 226 | 9.7 | 12.9 | 0.00 | 0.74 | 0.74 | 87 | 1008.6 |
| 20260509201948 | 12 | 234 | 8.0 | 9.7 | 0.00 | 0.74 | 0.74 | 88 | 1008.5 |
| 20260509201443 | 12 | 183 | 9.7 | 16.1 | 0.00 | 0.74 | 0.74 | 88 | 1008.6 |
| 20260509200940 | 12 | 162 | 6.4 | 8.0 | 0.00 | 0.74 | 0.74 | 88 | 1008.8 |
| 20260509200440 | 11 | 227 | 4.8 | 4.8 | 0.00 | 0.74 | 0.74 | 88 | 1008.8 |
| 20260509195937 | 11 | 200 | 4.8 | 4.8 | 0.00 | 0.74 | 0.74 | 89 | 1008.8 |
| 20260509195433 | 11 | 222 | 8.0 | 11.3 | 0.00 | 0.74 | 0.74 | 89 | 1009.2 |
| 20260509194932 | 11 | 147 | 4.8 | 8.0 | 0.00 | 0.74 | 0.74 | 89 | 1008.9 |
| 20260509194428 | 11 | 182 | 1.6 | 1.6 | 0.00 | 0.74 | 0.74 | 89 | 1008.8 |
| 20260509193926 | 11 | 187 | 0.0 | 1.6 | 0.00 | 0.74 | 0.74 | 89 | 1009.0 |
| 20260509193425 | 11 | 170 | 1.6 | 3.2 | 0.00 | 0.74 | 0.74 | 90 | 1009.0 |
| 20260509192921 | 11 | 181 | 1.6 | 1.6 | 0.00 | 0.74 | 0.74 | 90 | 1008.8 |
| 20260509192418 | 11 | 182 | 4.8 | 4.8 | 0.00 | 0.74 | 0.74 | 91 | 1009.1 |
| 20260509191913 | 11 | 181 | 3.2 | 4.8 | 0.00 | 0.74 | 0.74 | 91 | 1009.4 |
| 20260509191409 | 11 | 144 | 1.6 | 1.6 | 0.00 | 0.74 | 0.74 | 92 | 1009.1 |
| 20260509190905 | 11 | 175 | 6.4 | 8.0 | 0.00 | 0.74 | 0.74 | 92 | 1009.4 |
| 20260509190402 | 11 | 171 | 0.0 | 1.6 | 0.00 | 0.74 | 0.74 | 93 | 1009.4 |
| 20260509185900 | 10 | 195 | 4.8 | 4.8 | 0.00 | 0.74 | 0.74 | 93 | 1009.3 |
| 20260509185356 | 10 | 168 | 6.4 | 8.0 | 0.00 | 0.74 | 0.74 | 93 | 1009.5 |
| 20260509184853 | 10 | 198 | 3.2 | 3.2 | 0.00 | 0.74 | 0.74 | 94 | 1009.5 |
| 20260509184350 | 10 | 174 | 0.0 | 0.0 | 0.00 | 0.74 | 0.74 | 94 | 1009.4 |
| 20260509183847 | 10 | 181 | 4.8 | 4.8 | 0.00 | 0.74 | 0.74 | 94 | 1009.3 |
| 20260509183342 | 11 | 193 | 6.4 | 8.0 | 0.00 | 0.74 | 0.74 | 94 | 1009.3 |
| 20260509182838 | 10 | 189 | 1.6 | 3.2 | 0.00 | 0.74 | 0.74 | 94 | 1009.5 |
| 20260509182336 | 10 | 192 | 4.8 | 4.8 | 0.00 | 0.74 | 0.74 | 95 | 1009.5 |
| 20260509181833 | 10 | 178 | 4.8 | 4.8 | 0.00 | 0.74 | 0.74 | 95 | 1009.2 |
| 20260509181330 | 10 | 154 | 1.6 | 3.2 | 0.00 | 0.74 | 0.74 | 95 | 1009.4 |
| 20260509180827 | 10 | 163 | 3.2 | 3.2 | 0.00 | 0.74 | 0.74 | 95 | 1009.4 |
| 20260509180323 | 10 | 172 | 1.6 | 1.6 | 0.00 | 0.74 | 0.74 | 95 | 1009.3 |
| 20260509175820 | 10 | 165 | 0.0 | 0.0 | 0.00 | 0.74 | 0.74 | 95 | 1009.1 |
| 20260509175316 | 10 | 190 | 1.6 | 3.2 | 0.00 | 0.74 | 0.74 | 95 | 1009.5 |
| 20260509174812 | 10 | 154 | 3.2 | 3.2 | 0.00 | 0.74 | 0.74 | 95 | 1009.1 |
| 20260509174307 | 10 | 189 | 6.4 | 8.0 | 0.00 | 0.74 | 0.74 | 95 | 1009.3 |
| 20260509173804 | 10 | 167 | 0.0 | 0.0 | 0.00 | 0.74 | 0.74 | 95 | 1009.3 |
| 20260509173254 | 10 | 162 | 0.0 | 0.0 | 0.00 | 0.74 | 0.74 | 95 | 1009.5 |
| 20260509172750 | 10 | 173 | 1.6 | 1.6 | 0.00 | 0.74 | 0.74 | 95 | 1009.5 |
| 20260509172247 | 10 | 149 | 4.8 | 4.8 | 0.00 | 0.74 | 0.74 | 95 | 1009.3 |
| 20260509171743 | 10 | 181 | 8.0 | 9.7 | 0.00 | 0.74 | 0.74 | 95 | 1009.1 |
| 20260509171239 | 10 | 165 | 0.0 | 1.6 | 0.00 | 0.74 | 0.74 | 95 | 1009.3 |
| 20260509170736 | 10 | 157 | 6.4 | 9.7 | 0.00 | 0.74 | 0.74 | 95 | 1009.3 |
| 20260509170232 | 10 | 125 | 4.8 | 4.8 | 0.00 | 0.74 | 0.74 | 95 | 1009.1 |
| 20260509165730 | 10 | 196 | 1.6 | 3.2 | 0.00 | 0.74 | 0.74 | 95 | 1009.2 |
| 20260509165225 | 10 | 162 | 3.2 | 3.2 | 0.00 | 0.74 | 0.74 | 95 | 1009.3 |
| 20260509164722 | 10 | 137 | 4.8 | 4.8 | 0.00 | 0.74 | 0.74 | 95 | 1009.4 |
| 20260509164218 | 10 | 205 | 3.2 | 3.2 | 0.00 | 0.74 | 0.74 | 95 | 1009.5 |
| 20260509163715 | 10 | 164 | 0.0 | 0.0 | 0.00 | 0.74 | 0.74 | 95 | 1009.6 |
| 20260509163212 | 10 | 170 | 1.6 | 1.6 | 0.00 | 0.74 | 0.74 | 95 | 1009.5 |
| 20260509162709 | 10 | 118 | 8.0 | 9.7 | 0.00 | 0.74 | 0.74 | 95 | 1009.4 |
| 20260509162205 | 10 | 172 | 4.8 | 4.8 | 0.00 | 0.74 | 0.74 | 95 | 1009.5 |
| 20260509161700 | 10 | 134 | 1.6 | 3.2 | 0.13 | 0.74 | 0.74 | 95 | 1009.6 |
| 20260509161156 | 10 | 168 | 4.8 | 4.8 | 0.13 | 0.74 | 0.74 | 95 | 1010.0 |
| 20260509160652 | 10 | 159 | 3.2 | 3.2 | 0.00 | 0.71 | 0.71 | 95 | 1009.8 |
| 20260509160148 | 10 | 148 | 1.6 | 1.6 | 0.00 | 0.71 | 0.71 | 95 | 1009.7 |
| 20260509155644 | 10 | 181 | 4.8 | 9.7 | 0.18 | 0.71 | 0.71 | 95 | 1009.8 |
| 20260509155140 | 10 | 126 | 4.8 | 4.8 | 0.18 | 0.71 | 0.71 | 95 | 1009.7 |
| 20260509154636 | 10 | 171 | 4.8 | 8.0 | 0.00 | 0.69 | 0.69 | 95 | 1010.0 |
| 20260509154133 | 10 | 126 | 6.4 | 8.0 | 0.00 | 0.69 | 0.69 | 95 | 1010.0 |
| 20260509153630 | 10 | 159 | 6.4 | 8.0 | 0.00 | 0.69 | 0.69 | 95 | 1010.0 |
| 20260509153127 | 10 | 155 | 4.8 | 4.8 | 0.00 | 0.69 | 0.69 | 95 | 1010.0 |
| 20260509152623 | 10 | 138 | 11.3 | 12.9 | 0.00 | 0.69 | 0.69 | 95 | 1009.7 |
| 20260509152121 | 10 | 111 | 8.0 | 9.7 | 0.00 | 0.69 | 0.69 | 95 | 1009.7 |
| 20260509151617 | 10 | 155 | 8.0 | 9.7 | 0.00 | 0.69 | 0.69 | 95 | 1010.1 |
| 20260509151114 | 10 | 152 | 8.0 | 9.7 | 0.13 | 0.69 | 0.69 | 95 | 1010.1 |
| 20260509150612 | 10 | 171 | 8.0 | 11.3 | 0.13 | 0.69 | 0.69 | 95 | 1010.2 |
| 20260509150110 | 10 | 135 | 4.8 | 4.8 | 0.00 | 0.66 | 0.66 | 95 | 1010.5 |
| 20260509145605 | 10 | 141 | 8.0 | 9.7 | 0.00 | 0.66 | 0.66 | 95 | 1010.4 |
| 20260509145101 | 9 | 148 | 6.4 | 8.0 | 0.18 | 0.66 | 0.66 | 95 | 1010.4 |
| 20260509144558 | 9 | 94 | 8.0 | 9.7 | 0.18 | 0.66 | 0.66 | 95 | 1010.4 |
| 20260509144055 | 9 | 141 | 6.4 | 9.7 | 0.00 | 0.64 | 0.64 | 95 | 1010.4 |
| 20260509143552 | 9 | 114 | 6.4 | 8.0 | 0.00 | 0.64 | 0.64 | 95 | 1010.4 |
| 20260509143050 | 9 | 167 | 3.2 | 3.2 | 0.13 | 0.64 | 0.64 | 95 | 1010.5 |
| 20260509142545 | 9 | 141 | 4.8 | 4.8 | 0.13 | 0.64 | 0.64 | 95 | 1010.6 |
| 20260509142041 | 9 | 168 | 1.6 | 3.2 | 0.00 | 0.61 | 0.61 | 95 | 1010.7 |
| 20260509141538 | 9 | 134 | 3.2 | 4.8 | 0.18 | 0.61 | 0.61 | 95 | 1010.6 |
| 20260509141035 | 9 | 142 | 4.8 | 8.0 | 0.18 | 0.61 | 0.61 | 95 | 1010.6 |
| 20260509140531 | 9 | 121 | 4.8 | 4.8 | 0.00 | 0.58 | 0.58 | 95 | 1010.8 |
| 20260509140029 | 9 | 140 | 4.8 | 8.0 | 0.00 | 0.58 | 0.58 | 95 | 1010.7 |
| 20260509135526 | 9 | 111 | 4.8 | 4.8 | 0.13 | 0.58 | 0.58 | 95 | 1010.7 |
| 20260509135023 | 9 | 158 | 4.8 | 8.0 | 0.13 | 0.58 | 0.58 | 95 | 1010.7 |
| 20260509134521 | 9 | 123 | 9.7 | 11.3 | 0.18 | 0.56 | 0.56 | 95 | 1010.6 |
| 20260509134018 | 8 | 182 | 6.4 | 8.0 | 0.18 | 0.56 | 0.56 | 95 | 1010.5 |
| 20260509133514 | 8 | 147 | 3.2 | 3.2 | 0.00 | 0.53 | 0.53 | 95 | 1010.7 |
| 20260509133013 | 8 | 140 | 3.2 | 3.2 | 0.13 | 0.53 | 0.53 | 95 | 1010.7 |
| 20260509132511 | 8 | 138 | 3.2 | 3.2 | 0.13 | 0.53 | 0.53 | 95 | 1010.7 |
| 20260509132008 | 8 | 119 | 4.8 | 4.8 | 0.18 | 0.51 | 0.51 | 95 | 1010.8 |
| 20260509131505 | 8 | 165 | 0.0 | 0.0 | 0.18 | 0.51 | 0.51 | 95 | 1010.8 |
| 20260509131001 | 8 | 162 | 1.6 | 1.6 | 0.00 | 0.48 | 0.48 | 95 | 1010.8 |
| 20260509130456 | 8 | 172 | 0.0 | 1.6 | 0.00 | 0.48 | 0.48 | 95 | 1010.7 |
| 20260509125954 | 8 | 150 | 1.6 | 1.6 | 0.18 | 0.48 | 0.48 | 95 | 1010.8 |
| 20260509125450 | 8 | 154 | 0.0 | 0.0 | 0.30 | 0.48 | 0.48 | 95 | 1010.9 |
| 20260509124946 | 8 | 149 | 1.6 | 3.2 | 0.13 | 0.46 | 0.46 | 95 | 1011.0 |
| 20260509124444 | 8 | 128 | 0.0 | 0.0 | 0.18 | 0.43 | 0.43 | 95 | 1011.0 |
| 20260509123941 | 7 | 185 | 1.6 | 1.6 | 0.00 | 0.41 | 0.41 | 95 | 1011.0 |
| 20260509123438 | 7 | 169 | 0.0 | 0.0 | 0.13 | 0.41 | 0.41 | 94 | 1011.1 |
| 20260509122934 | 7 | 170 | 0.0 | 0.0 | 0.30 | 0.41 | 0.41 | 94 | 1011.1 |
| 20260509122431 | 7 | 169 | 0.0 | 0.0 | 0.18 | 0.38 | 0.38 | 94 | 1011.0 |
| 20260509121927 | 7 | 180 | 1.6 | 1.6 | 0.00 | 0.36 | 0.36 | 94 | 1011.1 |
| 20260509121425 | 7 | 162 | 0.0 | 0.0 | 0.13 | 0.36 | 0.36 | 94 | 1011.1 |
| 20260509120923 | 7 | 164 | 0.0 | 0.0 | 0.13 | 0.36 | 0.36 | 94 | 1011.1 |
| 20260509120420 | 7 | 151 | 0.0 | 1.6 | 0.18 | 0.33 | 0.33 | 94 | 1011.3 |
| 20260509115918 | 7 | 152 | 0.0 | 0.0 | 0.30 | 0.33 | 0.33 | 94 | 1011.3 |
| 20260509115415 | 7 | 132 | 1.6 | 1.6 | 0.30 | 0.30 | 0.30 | 94 | 1011.2 |
| 20260509114913 | 7 | 153 | 0.0 | 0.0 | 0.30 | 0.28 | 0.28 | 94 | 1011.2 |
| 20260509114411 | 7 | 161 | 0.0 | 0.0 | 0.30 | 0.25 | 0.25 | 94 | 1011.1 |
| 20260509113911 | 7 | 171 | 0.0 | 0.0 | 0.30 | 0.23 | 0.23 | 94 | 1011.2 |
| 20260509113408 | 6 | 173 | 0.0 | 0.0 | 0.30 | 0.20 | 0.20 | 94 | 1011.0 |
| 20260509112903 | 6 | 175 | 0.0 | 0.0 | 0.36 | 0.18 | 0.18 | 93 | 1011.1 |
| 20260509112401 | 6 | 181 | 0.0 | 0.0 | 0.18 | 0.15 | 0.15 | 93 | 1011.1 |
| 20260509111858 | 7 | 196 | 1.6 | 1.6 | 0.30 | 0.13 | 0.13 | 93 | 1011.0 |
| 20260509111354 | 7 | 162 | 1.6 | 1.6 | 0.30 | 0.10 | 0.10 | 94 | 1011.0 |
| 20260509110853 | 7 | 135 | 3.2 | 3.2 | 0.13 | 0.08 | 0.08 | 94 | 1011.0 |
| 20260509110348 | 7 | 143 | 1.6 | 1.6 | 0.18 | 0.05 | 0.05 | 93 | 1011.0 |
| 20260509105847 | 6 | 118 | 0.0 | 0.0 | 0.18 | 0.05 | 0.05 | 93 | 1010.9 |
| 20260509105345 | 6 | 148 | 0.0 | 0.0 | 0.00 | 0.03 | 0.03 | 93 | 1010.9 |
| 20260509104841 | 5 | 155 | 0.0 | 0.0 | 0.00 | 0.03 | 0.03 | 93 | 1011.0 |
| 20260509104338 | 5 | 155 | 0.0 | 0.0 | 0.00 | 0.03 | 0.03 | 92 | 1011.0 |
| 20260509103836 | 5 | 153 | 0.0 | 0.0 | 0.00 | 0.03 | 0.03 | 92 | 1010.9 |
| 20260509103333 | 5 | 153 | 0.0 | 0.0 | 0.00 | 0.03 | 0.03 | 92 | 1010.8 |
| 20260509102832 | 5 | 157 | 0.0 | 0.0 | 0.00 | 0.03 | 0.03 | 92 | 1011.0 |
| 20260509102328 | 5 | 173 | 0.0 | 0.0 | 0.00 | 0.03 | 0.03 | 92 | 1011.0 |
| 20260509101824 | 5 | 175 | 0.0 | 0.0 | 0.00 | 0.03 | 0.03 | 92 | 1010.9 |
| 20260509101320 | 5 | 174 | 1.6 | 1.6 | 0.00 | 0.03 | 0.03 | 92 | 1011.0 |
| 20260509100818 | 5 | 152 | 0.0 | 0.0 | 0.00 | 0.03 | 0.03 | 92 | 1010.7 |
| 20260509100315 | 5 | 122 | 3.2 | 3.2 | 0.00 | 0.03 | 0.03 | 92 | 1010.9 |
| 20260509095812 | 5 | 148 | 1.6 | 3.2 | 0.00 | 0.03 | 0.03 | 91 | 1011.0 |
| 20260509095309 | 5 | 155 | 0.0 | 0.0 | 0.00 | 0.03 | 0.03 | 91 | 1011.0 |
| 20260509094806 | 5 | 155 | 0.0 | 0.0 | 0.00 | 0.03 | 0.03 | 91 | 1010.9 |
| 20260509094303 | 5 | 154 | 0.0 | 0.0 | 0.00 | 0.03 | 0.03 | 91 | 1010.8 |
| 20260509093801 | 5 | 144 | 0.0 | 0.0 | 0.00 | 0.03 | 0.03 | 91 | 1011.0 |
| 20260509093258 | 5 | 131 | 1.6 | 3.2 | 0.13 | 0.03 | 0.03 | 91 | 1011.0 |
| 20260509092756 | 5 | 167 | 0.0 | 0.0 | 0.13 | 0.03 | 0.03 | 91 | 1011.1 |
| 20260509092254 | 5 | 164 | 0.0 | 1.6 | 0.00 | 0.00 | 0.00 | 91 | 1011.1 |
| 20260509091751 | 5 | 140 | 0.0 | 0.0 | 0.00 | 0.00 | 0.00 | 91 | 1010.9 |
| 20260509091248 | 5 | 144 | 1.6 | 3.2 | 0.00 | 0.00 | 0.00 | 91 | 1011.1 |
| 20260509090745 | 5 | 146 | 1.6 | 1.6 | 0.00 | 0.00 | 0.00 | 90 | 1011.1 |
| 20260509090242 | 4 | 156 | 0.0 | 0.0 | 0.00 | 0.00 | 0.00 | 90 | 1011.2 |
| 20260509085740 | 4 | 155 | 0.0 | 0.0 | 0.00 | 0.00 | 0.00 | 90 | 1011.0 |
| 20260509085237 | 4 | 144 | 0.0 | 0.0 | 0.00 | 0.00 | 0.00 | 90 | 1011.1 |
| 20260509084733 | 4 | 148 | 0.0 | 0.0 | 0.00 | 0.00 | 0.00 | 90 | 1011.1 |
| 20260509084230 | 4 | 170 | 1.6 | 1.6 | 0.00 | 0.00 | 0.00 | 90 | 1011.1 |
| 20260509083728 | 4 | 174 | 1.6 | 3.2 | 0.00 | 0.00 | 0.00 | 90 | 1011.3 |
| 20260509083225 | 4 | 147 | 1.6 | 1.6 | 0.00 | 0.00 | 0.00 | 90 | 1011.3 |
| 20260509082721 | 4 | 130 | 3.2 | 3.2 | 0.00 | 0.00 | 0.00 | 90 | 1011.4 |
| 20260509082218 | 4 | 131 | 3.2 | 3.2 | 0.00 | 0.00 | 0.00 | 90 | 1011.6 |
| 20260509081715 | 4 | 161 | 0.0 | 0.0 | 0.00 | 0.00 | 0.00 | 90 | 1011.7 |
| 20260509081212 | 4 | 155 | 1.6 | 1.6 | 0.00 | 0.00 | 0.00 | 90 | 1011.5 |
| 20260509080711 | 4 | 155 | 0.0 | 0.0 | 0.00 | 0.00 | 0.00 | 90 | 1011.7 |
| 20260509080208 | 4 | 176 | 0.0 | 0.0 | 0.00 | 0.00 | 0.00 | 90 | 1011.6 |
| 20260509075706 | 4 | 176 | 0.0 | 0.0 | 0.00 | 0.00 | 0.00 | 90 | 1011.8 |
| 20260509075203 | 4 | 176 | 0.0 | 0.0 | 0.00 | 0.00 | 0.00 | 90 | 1011.5 |
| 20260509074700 | 4 | 176 | 0.0 | 0.0 | 0.00 | 0.00 | 0.00 | 90 | 1011.5 |
| 20260509074157 | 4 | 176 | 0.0 | 0.0 | 0.00 | 0.00 | 0.00 | 90 | 1011.4 |
| 20260509073654 | 4 | 176 | 0.0 | 0.0 | 0.00 | 0.00 | 0.00 | 89 | 1011.7 |
| 20260509073149 | 4 | 176 | 0.0 | 0.0 | 0.00 | 0.00 | 0.00 | 89 | 1011.7 |
| 20260509072647 | 4 | 176 | 0.0 | 0.0 | 0.00 | 0.00 | 0.00 | 89 | 1011.6 |
| 20260509072143 | 4 | 176 | 0.0 | 0.0 | 0.00 | 0.00 | 0.00 | 89 | 1011.6 |
| 20260509071640 | 4 | 176 | 0.0 | 0.0 | 0.00 | 0.00 | 0.00 | 89 | 1011.7 |
| 20260509071137 | 3 | 176 | 0.0 | 0.0 | 0.00 | 0.00 | 0.00 | 89 | 1011.6 |
| 20260509070634 | 3 | 176 | 0.0 | 0.0 | 0.00 | 0.00 | 0.00 | 89 | 1011.5 |
| 20260509070131 | 3 | 176 | 0.0 | 0.0 | 0.00 | 0.00 | 0.00 | 89 | 1011.5 |
| 20260509065626 | 3 | 176 | 0.0 | 0.0 | 0.00 | 0.00 | 0.00 | 89 | 1011.5 |
| 20260509065123 | 3 | 176 | 1.6 | 1.6 | 0.00 | 0.00 | 0.00 | 89 | 1011.5 |
| 20260509064620 | 4 | 176 | 0.0 | 0.0 | 0.00 | 0.00 | 0.00 | 89 | 1011.7 |
| 20260509064118 | 3 | 176 | 0.0 | 0.0 | 0.00 | 0.00 | 0.00 | 89 | 1011.8 |
| 20260509063614 | 4 | 176 | 1.6 | 1.6 | 0.00 | 0.00 | 0.00 | 89 | 1011.7 |
| 20260509063111 | 4 | 176 | 0.0 | 0.0 | 0.00 | 0.00 | 0.00 | 88 | 1011.8 |
| 20260509062608 | 4 | 176 | 0.0 | 0.0 | 0.00 | 0.00 | 0.00 | 88 | 1011.9 |
| 20260509062105 | 4 | 176 | 0.0 | 0.0 | 0.00 | 0.00 | 0.00 | 88 | 1011.8 |
| 20260509061602 | 3 | 176 | 0.0 | 0.0 | 0.00 | 0.00 | 0.00 | 88 | 1012.1 |
| 20260509061059 | 3 | 176 | 0.0 | 0.0 | 0.00 | 0.00 | 0.00 | 88 | 1012.2 |
| 20260509060557 | 3 | 176 | 1.6 | 1.6 | 0.00 | 0.00 | 0.00 | 88 | 1012.2 |
| 20260509060052 | 3 | 176 | 1.6 | 1.6 | 0.00 | 0.00 | 0.00 | 88 | 1012.1 |
| 20260509055548 | 3 | 176 | 0.0 | 0.0 | 0.00 | 0.00 | 0.00 | 88 | 1012.2 |
| 20260509055044 | 3 | 177 | 0.0 | 0.0 | 0.00 | 0.00 | 0.00 | 88 | 1012.3 |
| 20260509054541 | 3 | 177 | 0.0 | 0.0 | 0.00 | 0.00 | 0.00 | 88 | 1012.3 |
| 20260509054039 | 3 | 177 | 0.0 | 0.0 | 0.00 | 0.00 | 0.00 | 87 | 1012.2 |
| 20260509053538 | 3 | 177 | 0.0 | 0.0 | 0.00 | 0.00 | 0.00 | 87 | 1012.3 |
| 20260509053034 | 3 | 177 | 0.0 | 0.0 | 0.00 | 0.00 | 0.00 | 87 | 1012.2 |
| 20260509052532 | 3 | 177 | 0.0 | 0.0 | 0.00 | 0.00 | 0.00 | 87 | 1012.2 |
| 20260509052030 | 3 | 178 | 0.0 | 0.0 | 0.00 | 0.00 | 0.00 | 87 | 1012.2 |
| 20260509051527 | 3 | 179 | 0.0 | 0.0 | 0.00 | 0.00 | 0.00 | 87 | 1012.4 |
| 20260509051024 | 3 | 177 | 0.0 | 1.6 | 0.00 | 0.00 | 0.00 | 87 | 1012.4 |
| 20260509050521 | 3 | 166 | 1.6 | 1.6 | 0.00 | 0.00 | 0.00 | 87 | 1012.5 |
| 20260509050017 | 3 | 175 | 0.0 | 0.0 | 0.00 | 0.00 | 0.00 | 87 | 1012.3 |
| 20260509045515 | 3 | 158 | 0.0 | 0.0 | 0.00 | 0.00 | 0.00 | 87 | 1012.1 |
| 20260509045012 | 3 | 138 | 1.6 | 1.6 | 0.00 | 0.00 | 0.00 | 87 | 1012.6 |
| 20260509044509 | 3 | 147 | 1.6 | 1.6 | 0.00 | 0.00 | 0.00 | 87 | 1012.6 |
| 20260509044007 | 3 | 148 | 0.0 | 0.0 | 0.00 | 0.00 | 0.00 | 86 | 1012.4 |
| 20260509043502 | 3 | 149 | 0.0 | 0.0 | 0.00 | 0.00 | 0.00 | 86 | 1012.7 |
| 20260509042957 | 3 | 148 | 0.0 | 0.0 | 0.00 | 0.00 | 0.00 | 86 | 1012.4 |
| 20260509042455 | 3 | 148 | 0.0 | 0.0 | 0.00 | 0.00 | 0.00 | 86 | 1012.6 |
| 20260509041950 | 3 | 149 | 0.0 | 0.0 | 0.00 | 0.00 | 0.00 | 86 | 1012.5 |
| 20260509041448 | 3 | 150 | 1.6 | 1.6 | 0.00 | 0.00 | 0.00 | 86 | 1012.4 |
| 20260509040946 | 3 | 152 | 0.0 | 0.0 | 0.00 | 0.00 | 0.00 | 85 | 1012.9 |
| 20260509040444 | 3 | 152 | 0.0 | 0.0 | 0.00 | 0.00 | 0.00 | 85 | 1012.6 |
| 20260509035940 | 3 | 152 | 0.0 | 0.0 | 0.00 | 0.18 | 0.18 | 85 | 1012.7 |
| 20260509035437 | 3 | 151 | 0.0 | 0.0 | 0.00 | 0.18 | 0.18 | 84 | 1012.7 |
| 20260509034933 | 3 | 174 | 0.0 | 0.0 | 0.00 | 0.18 | 0.18 | 84 | 1012.5 |
| 20260509034431 | 3 | 176 | 1.6 | 1.6 | 0.00 | 0.18 | 0.18 | 84 | 1012.5 |
| 20260509033928 | 3 | 66 | 4.8 | 4.8 | 0.00 | 0.18 | 0.18 | 84 | 1012.6 |
| 20260509033425 | 3 | 100 | 3.2 | 3.2 | 0.00 | 0.18 | 0.18 | 83 | 1012.6 |
| 20260509032922 | 3 | 187 | 0.0 | 0.0 | 0.00 | 0.18 | 0.18 | 83 | 1012.5 |
| 20260509032420 | 3 | 191 | 1.6 | 1.6 | 0.00 | 0.18 | 0.18 | 82 | 1012.4 |
| 20260509031917 | 4 | 151 | 0.0 | 0.0 | 0.00 | 0.18 | 0.18 | 82 | 1012.5 |
| 20260509031414 | 4 | 152 | 0.0 | 0.0 | 0.00 | 0.18 | 0.18 | 82 | 1012.6 |
| 20260509030911 | 4 | 151 | 1.6 | 1.6 | 0.00 | 0.18 | 0.18 | 81 | 1012.8 |
| 20260509030410 | 3 | 174 | 0.0 | 0.0 | 0.00 | 0.18 | 0.18 | 80 | 1012.8 |
| 20260509025907 | 4 | 111 | 1.6 | 3.2 | 0.00 | 0.18 | 0.18 | 80 | 1012.6 |
| 20260509025402 | 4 | 153 | 1.6 | 1.6 | 0.00 | 0.18 | 0.18 | 79 | 1012.7 |
| 20260509024857 | 4 | 106 | 3.2 | 3.2 | 0.00 | 0.18 | 0.18 | 79 | 1012.7 |
| 20260509024353 | 4 | 117 | 1.6 | 1.6 | 0.00 | 0.18 | 0.18 | 78 | 1012.7 |
| 20260509023851 | 5 | 132 | 1.6 | 1.6 | 0.00 | 0.18 | 0.18 | 77 | 1012.7 |
| 20260509023348 | 5 | 110 | 3.2 | 3.2 | 0.00 | 0.18 | 0.18 | 77 | 1012.7 |
| 20260509022844 | 5 | 134 | 1.6 | 1.6 | 0.00 | 0.18 | 0.18 | 76 | 1012.7 |
| 20260509022342 | 5 | 131 | 1.6 | 1.6 | 0.00 | 0.18 | 0.18 | 76 | 1012.7 |
| 20260509021838 | 5 | 140 | 0.0 | 0.0 | 0.00 | 0.18 | 0.18 | 75 | 1012.6 |
| 20260509021336 | 5 | 111 | 3.2 | 3.2 | 0.00 | 0.18 | 0.18 | 75 | 1012.6 |
| 20260509020833 | 6 | 106 | 3.2 | 3.2 | 0.00 | 0.18 | 0.18 | 75 | 1012.8 |
| 20260509020332 | 6 | 139 | 1.6 | 3.2 | 0.00 | 0.18 | 0.18 | 74 | 1012.7 |
| 20260509015828 | 6 | 165 | 0.0 | 0.0 | 0.00 | 0.18 | 0.18 | 74 | 1012.7 |
| 20260509015327 | 6 | 163 | 0.0 | 0.0 | 0.00 | 0.18 | 0.18 | 74 | 1012.8 |
| 20260509014823 | 6 | 179 | 1.6 | 1.6 | 0.00 | 0.18 | 0.18 | 73 | 1012.4 |
| 20260509014320 | 7 | 140 | 1.6 | 1.6 | 0.00 | 0.18 | 0.18 | 73 | 1012.4 |
| 20260509013817 | 7 | 141 | 1.6 | 1.6 | 0.00 | 0.18 | 0.18 | 73 | 1012.4 |
| 20260509013313 | 7 | 139 | 1.6 | 3.2 | 0.00 | 0.18 | 0.18 | 74 | 1012.5 |
| 20260509012809 | 7 | 145 | 0.0 | 0.0 | 0.00 | 0.18 | 0.18 | 74 | 1012.3 |
| 20260509012307 | 7 | 129 | 1.6 | 1.6 | 0.00 | 0.18 | 0.18 | 74 | 1012.2 |
| 20260509011803 | 7 | 142 | 1.6 | 1.6 | 0.00 | 0.18 | 0.18 | 74 | 1012.4 |
| 20260509011301 | 7 | 155 | 0.0 | 1.6 | 0.00 | 0.18 | 0.18 | 73 | 1012.3 |
| 20260509010758 | 7 | 159 | 0.0 | 1.6 | 0.00 | 0.18 | 0.18 | 73 | 1012.3 |
| 20260509010255 | 7 | 162 | 0.0 | 0.0 | 0.00 | 0.18 | 0.18 | 72 | 1012.1 |
| 20260509005752 | 8 | 162 | 0.0 | 0.0 | 0.00 | 0.18 | 0.18 | 70 | 1012.0 |
| 20260509005250 | 8 | 161 | 1.6 | 1.6 | 0.00 | 0.18 | 0.18 | 68 | 1011.8 |
| 20260509004744 | 8 | 338 | 1.6 | 1.6 | 0.00 | 0.18 | 0.18 | 68 | 1011.7 |
| 20260509004241 | 8 | 113 | 3.2 | 3.2 | 0.00 | 0.18 | 0.18 | 69 | 1011.6 |
| 20260509003739 | 8 | 166 | 0.0 | 0.0 | 0.00 | 0.18 | 0.18 | 68 | 1011.7 |
| 20260509003236 | 8 | 166 | 0.0 | 0.0 | 0.00 | 0.18 | 0.18 | 67 | 1011.6 |
| 20260509002734 | 8 | 167 | 0.0 | 0.0 | 0.00 | 0.18 | 0.18 | 67 | 1011.5 |
| 20260509002231 | 8 | 153 | 0.0 | 1.6 | 0.00 | 0.18 | 0.18 | 67 | 1011.5 |
| 20260509001729 | 8 | 128 | 1.6 | 1.6 | 0.00 | 0.18 | 0.18 | 66 | 1011.3 |
| 20260509001224 | 8 | 100 | 3.2 | 3.2 | 0.00 | 0.18 | 0.18 | 64 | 1011.3 |
| 20260509000723 | 8 | 58 | 3.2 | 3.2 | 0.00 | 0.18 | 0.18 | 63 | 1011.4 |
| 20260509000220 | 9 | 83 | 3.2 | 3.2 | 0.00 | 0.18 | 0.18 | 61 | 1011.4 |
| 20260508235716 | 10 | 92 | 3.2 | 3.2 | 0.00 | 0.18 | 0.18 | 58 | 1011.4 |
| 20260508235213 | 10 | 40 | 4.8 | 4.8 | 0.00 | 0.18 | 0.18 | 58 | 1011.3 |
| 20260508234711 | 10 | 109 | 1.6 | 1.6 | 0.00 | 0.18 | 0.18 | 56 | 1011.2 |
| 20260508234207 | 11 | 98 | 3.2 | 3.2 | 0.00 | 0.18 | 0.18 | 56 | 1011.1 |
| 20260508233706 | 11 | 72 | 3.2 | 3.2 | 0.00 | 0.18 | 0.18 | 51 | 1011.0 |
| 20260508233204 | 11 | 22 | 4.8 | 4.8 | 0.00 | 0.18 | 0.18 | 51 | 1011.0 |
| 20260508232701 | 12 | 343 | 4.8 | 4.8 | 0.00 | 0.18 | 0.18 | 49 | 1011.1 |
| 20260508232157 | 12 | 99 | 3.2 | 3.2 | 0.00 | 0.18 | 0.18 | 50 | 1011.1 |
| 20260508231655 | 12 | 212 | 3.2 | 3.2 | 0.00 | 0.18 | 0.18 | 47 | 1011.3 |